Tashkent, Uzbekistan

1:52 PM +05 on June 18, 2018 (GMT +0500)
Yuzhny

Weather History for UTTT - January, 2012

Change the Weather History Date:

Sunday, January 1, 2012

  Actual Average Record
Temperature  
Mean Temperature 30 °F -  
Max Temperature 42 °F 42 °F - ()
Min Temperature 18 °F 26 °F - ()
Degree Days  
Heating Degree Days 35    
Moisture  
Dew Point 17 °F    
Average Humidity 80    
Maximum Humidity 100    
Minimum Humidity 47    
Precipitation  
Precipitation 0.00 in 0.07 in - ()
Sea Level Pressure  
Sea Level Pressure 30.18 in    
Wind  
Wind Speed 2 mph ()    
Max Wind Speed 7 mph    
Max Gust Speed -    
Visibility 2.3 miles    
Events Fog    
T = Trace of Precipitation, MM = Missing Value Source: Averaged Metar Reports

Daily Weather History Graph

Daily Weather History Graph

Search for Another Location

Airport or City:

Astronomy

Jan. 01, 2012 Rise Set
Actual Time 7:48 AM +05 5:03 PM +05
Civil Twilight 7:17 AM +05 5:34 PM +05
Nautical Twilight 6:42 AM +05 6:09 PM +05
Astronomical Twilight 6:09 AM +05 6:43 PM +05
Moon 11:43 AM +05 (1/1) 12:15 AM +05 (1/1)
Length of Visible Light 10h 17m
Length of Day
9h 15m
Waxing Crescent, 50% of the Moon is Illuminated
Jan 1
Waxing Crescent
Jan 9
Full
Jan 16
Last Quarter
Jan 23
New
Jan 31
First Quarter

Hourly Weather History & Observations

Time (+05) Temp. Windchill Dew Point Humidity Pressure Visibility Wind Dir Wind Speed Gust Speed Precip Events Conditions
12:00 AM 14.0 °F - 12.2 °F 93% 30.30 in 0.0 mi Calm Calm - N/A Fog Light Freezing Fog
12:30 AM 14.0 °F - 12.2 °F 93% 30.30 in 0.0 mi Variable 2.2 mph - N/A Fog Light Freezing Fog
1:00 AM 14.0 °F - 12.2 °F 93% 30.27 in 1.8 mi Calm Calm - N/A   Mist
1:30 AM 15.8 °F - 14.0 °F 93% 30.27 in 1.4 mi Variable 2.2 mph - N/A   Mist
2:00 AM 14.0 °F 6.6 °F 14.0 °F 100% 30.27 in 1.2 mi WSW 4.5 mph - N/A   Mist
2:30 AM 15.8 °F - 14.0 °F 93% 30.27 in 0.0 mi Variable 2.2 mph - N/A Fog Light Freezing Fog
3:00 AM 14.0 °F - 14.0 °F 100% 30.27 in 0.8 mi Calm Calm - N/A   Mist
3:30 AM 14.0 °F - 12.2 °F 93% 30.27 in 1.4 mi SE 2.2 mph - N/A   Mist
4:00 AM 15.8 °F - 14.0 °F 93% 30.24 in 1.5 mi Calm Calm - N/A   Mist
4:30 AM 15.8 °F - 14.0 °F 93% 30.24 in 1.2 mi East 2.2 mph - N/A   Mist
5:00 AM 19 °F - 15 °F 79% 30.37 in 6 mi Calm Calm - -  
5:00 AM 15.8 °F - 15.8 °F 100% 30.24 in 1.2 mi Variable 2.2 mph - N/A   Mist
5:30 AM 15.8 °F - 14.0 °F 93% 30.24 in 1.6 mi East 2.2 mph - N/A   Mist
6:00 AM 15.8 °F - 14.0 °F 93% 30.21 in 2.5 mi ENE 2.2 mph - N/A   Mist
6:30 AM 15.8 °F - 14.0 °F 93% 30.24 in 2.5 mi Calm Calm - N/A   Mist
7:00 AM 15.8 °F - 14.0 °F 93% 30.24 in 2.5 mi Calm Calm - N/A   Mist
7:30 AM 15.8 °F - 14.0 °F 93% 30.21 in 1.7 mi Calm Calm - N/A   Mist
8:00 AM 15.8 °F - 15.8 °F 100% 30.24 in 1.9 mi Calm Calm - N/A   Mist
8:30 AM 15.8 °F - 14.0 °F 93% 30.24 in 1.7 mi SW 2.2 mph - N/A   Mist
9:00 AM 14.0 °F - 14.0 °F 100% 30.24 in 1.3 mi Variable 2.2 mph - N/A   Mist
9:30 AM 17.6 °F - 15.8 °F 93% 30.24 in 1.4 mi South 2.2 mph - N/A   Mist
10:00 AM 17.6 °F - 17.6 °F 100% 30.24 in 1.6 mi Variable 2.2 mph - N/A   Mist
10:30 AM 19.4 °F 12.9 °F 17.6 °F 93% 30.24 in 2.5 mi SSE 4.5 mph - N/A   Mist
11:00 AM 30 °F - 17 °F 47% 30.29 in 31 mi Calm Calm - -  
11:00 AM 19.4 °F 12.9 °F 17.6 °F 93% 30.21 in 2.5 mi East 4.5 mph - N/A   Mist
11:30 AM 23.0 °F 17.1 °F 19.4 °F 86% 30.18 in 4.3 mi East 4.5 mph - N/A   Unknown
12:00 PM 28.4 °F - 19.4 °F 69% 30.18 in 4.3 mi Variable 2.2 mph - N/A   Unknown
12:30 PM 28.4 °F 21.4 °F 15.8 °F 59% 30.15 in 4.3 mi South 6.7 mph - N/A   Unknown
1:00 PM 33.8 °F - 15.8 °F 48% 30.15 in 4.3 mi Variable 2.2 mph - N/A   Unknown
1:30 PM 33.8 °F - 17.6 °F 52% 30.12 in 4.3 mi South 2.2 mph - N/A   Unknown
2:00 PM 33.8 °F - 17.6 °F 52% 30.12 in 4.3 mi SSW 2.2 mph - N/A   Unknown
2:30 PM 33.8 °F 29.7 °F 19.4 °F 56% 30.12 in 4.3 mi WSW 4.5 mph - N/A   Unknown
3:00 PM 33.8 °F 29.7 °F 21.2 °F 60% 30.12 in 4.3 mi SW 4.5 mph - N/A   Unknown
3:30 PM 33.8 °F 27.9 °F 23.0 °F 65% 30.12 in 2.5 mi SW 6.7 mph - N/A   Smoke
4:00 PM 32.0 °F 27.6 °F 23.0 °F 69% 30.12 in 1.9 mi SSW 4.5 mph - N/A   Smoke
4:30 PM 30.2 °F 25.5 °F 21.2 °F 69% 30.12 in 1.9 mi South 4.5 mph - N/A   Smoke
5:00 PM 32 °F - 24 °F 61% 30.20 in 2 mi Calm Calm - -   Mist
5:00 PM 28.4 °F - 21.2 °F 74% 30.12 in 1.9 mi SSE 2.2 mph - N/A   Mist
5:30 PM 28.4 °F - 21.2 °F 74% 30.12 in 1.9 mi SE 2.2 mph - N/A   Mist
6:00 PM 26.6 °F - 19.4 °F 74% 30.12 in 1.9 mi Variable 2.2 mph - N/A   Mist
6:30 PM 26.6 °F - 21.2 °F 80% 30.12 in 1.7 mi Calm Calm - N/A   Mist
7:00 PM 24.8 °F - 19.4 °F 80% 30.12 in 1.7 mi East 2.2 mph - N/A   Mist
7:30 PM 24.8 °F 19.2 °F 19.4 °F 80% 30.12 in 1.7 mi East 4.5 mph - N/A   Mist
8:00 PM 24.8 °F 17.1 °F 17.6 °F 74% 30.09 in 1.9 mi East 6.7 mph - N/A   Mist
8:30 PM 24.8 °F 19.2 °F 21.2 °F 86% 30.09 in 1.4 mi ENE 4.5 mph - N/A   Mist
9:00 PM 24.8 °F 19.2 °F 17.6 °F 74% 30.09 in 1.9 mi NE 4.5 mph - N/A   Mist
9:30 PM 23.0 °F 14.9 °F 15.8 °F 74% 30.09 in 1.9 mi ENE 6.7 mph - N/A   Mist
10:00 PM 24.8 °F 17.1 °F 15.8 °F 69% 30.06 in 2.5 mi NE 6.7 mph - N/A   Mist
10:30 PM 24.8 °F 17.1 °F 15.8 °F 69% 30.06 in 2.5 mi ENE 6.7 mph - N/A   Mist
11:00 PM 25 °F - 19 °F 71% 30.16 in 6 mi ENE 2.2 mph - -  
11:00 PM 23.0 °F 14.9 °F 15.8 °F 74% 30.06 in 2.5 mi ENE 6.7 mph - N/A   Mist
11:30 PM 23.0 °F 17.1 °F 15.8 °F 74% 30.06 in 2.5 mi East 4.5 mph - N/A   Mist